Location: Cormont
(50.5693°N, 1.7416°E)
Time: 03:19:00
(UTC+00:00)

In-Cosmos 22 Rocket - Pass Details

Date: 21 October 2019
Orbit: 790 x 888 km, 81.2° (Epoch: 17 November)

Event Time Altitude Azimuth Distance (km) Brightness Sun altitude
Rises 18:19:51 0° 350° (N) 3,321 7.4 -15.0°
Reaches altitude 10° 18:22:19 10° 356° (N) 2,396 6.6 -15.4°
Maximum altitude 18:27:33 49° 72° (ENE) 1,043 4.3 -16.2°
Enters shadow 18:32:49 10° 147° (SSE) 2,409 6.2 -17.1°
